Location: Ferintosh
(52.7647°N, 112.9692°W)
Time: 19:20:12
(UTC+00:00)

Explorer 7 - Pass Details

Date: 22 May 2024
Orbit: 466 x 622 km, 50.3° (Epoch: 16 June)

Event Time Altitude Azimuth Distance (km) Brightness Sun altitude
Rises 07:57:44 0° 245° (WSW) 2,563 - -16.5°
Reaches altitude 10° 07:59:54 10° 240° (WSW) 1,705 - -16.4°
Exits shadow 08:02:05 30° 222° (SW) 933 7.5 -16.4°
Maximum altitude 08:03:38 49° 165° (SSE) 674 6.8 -16.3°
Drops below altitude 10° 08:07:35 10° 90° (E) 1,800 9.5 -16.2°
Sets 08:09:55 0° 85° (E) 2,724 10.6 -16.2°
